星链-34491 (STARLINK-34491)

导读

STARLINK-34491是美国SpaceX星链星座的卫星,于2025年7月8日发射入轨,星链是全球低轨卫星互联网星座计划,旨在为全球提供高速低延迟互联网服务,该卫星承担为偏远地区、移动场景提供互联网接入,补充全球网络覆盖能力,服役后将融入庞大的星链卫星网络,推动卫星互联网的全球覆盖进程。

Basic Information
目录编号:
64780
目录名称:
STARLINK-34491
国际标识:
2025-147AB
轨道中心:
EARTH
卫星名称:
星链-34491
卫星全名:
星链-34491 (STARLINK-34491)
卫星状态:
在轨 (已飞行423 天)
发射日期:
2025-07-08 UTC
国别 :
美国 (US)
星等 :
--
Orbit Information
数据来源 国际轨道数据 AOE轨道数据
星历时间 2026-09-04T12:04:47+0800
8小时前
查看轨道信息
2026-09-01T01:00:00+0800
3天前
查看轨道信息
半长轴 6840.881km 6840.85km
偏心率 0.0000894 0.0001037
轨道倾角 53.157° 53.157°
近地点辐角 56.085° 104.196°
升交点赤经 129.771° 145.953°
平近点角 304.023° 203.740°
近地点 462.132km 462.003km
远地点 463.356km 463.423km
周期 93.849分钟 93.848分钟
每日圈数 15.343865 15.343968
Detailed Information
固有亮度:
5
最大亮度:
2.5
卫星平台:
Starlink V1.0
覆盖范围:
全球
运营商:
太空探索技术公司
运营商所在国:
美国
制造商(研发单位):
太空探索技术公司
制造商所在国:
美国
使用方式:
暂无
Satellite Introduction
Starlink 计划是 SpaceX 推出的全球卫星互联网项目,通过发射低轨道卫星,为全球尤其是偏远地区提供高速、低延迟的互联网服务。自 2019 年起,Starlink 已部署数千颗卫星,旨在缩小全球数字鸿沟,推动互联网普及。该项目还为军事、航空等行业提供通信支持,带来广泛经济效益。
2D Orbit Map
3D Orbit Map
Orbit Altitude Analysis Chart
Orbit Inclination Analysis Chart
Orbit Comprehensive Analysis Chart
View Comprehensive Chart
Conjunction Data List
Event ID Objects TCA Miss Dist (km) Collision Risk Probability Collision Risk Index (CRI) Action
CDM_260905-092306-478006-608021
2026-09-05T
09:23:43+0000
0.090 km
近距离
7.482666E-4 高风险 0.92
CDM_260905-101006-478006-608021
2026-09-05T
10:10:36+0000
1.110 km
极远距离
2.494746E-6 低风险 0.43
CDM_260905-083204-846806-478021
2026-09-05T
08:32:28+0000
1.663 km
极远距离
2.405853E-6 低风险 0.43
CDM_260906-013205-211006-478021
2026-09-06T
01:32:12+0000
2.303 km
极远距离
1.778641E-6 低风险 0.4
CDM_260905-114406-478006-608021
2026-09-05T
11:44:24+0000
1.289 km
极远距离
1.55261E-6 低风险 0.39
CDM_260906-044804-977106-478021
2026-09-06T
04:48:21+0000
2.923 km
极远距离
9.873983E-7 极低风险 0.35
CDM_260905-074906-478006-608021
2026-09-05T
07:49:55+0000
2.081 km
极远距离
4.632775E-7 极低风险 0.28
CDM_260905-105706-478006-608021
2026-09-05T
10:57:30+0000
2.277 km
极远距离
3.959859E-7 极低风险 0.27
CDM_260903-234706-478006-619921
2026-09-03T
23:47:14+0000
2.463 km
极远距离
3.947337E-7 极低风险 0.27